Location: Albany
(35.0170°S, 117.8920°E)
Time: 21:47:36
(UTC+08:00)

A-11 Canister half - Pass Details

Date: 25 January 2021
Orbit: 1525 x 1684 km, 47.3° (Epoch: 03 March)

Event Time Altitude Azimuth Distance (km) Brightness Sun altitude
Rises 11:47:01 0° 255° (WSW) 4,773 11.5 72.3°
Reaches altitude 10° 11:53:46 10° 288° (WNW) 3,738 11.2 72.8°
Maximum altitude 11:55:41 11° 300° (WNW) 3,665 11.2 73.0°
Drops below altitude 10° 11:57:37 10° 313° (NW) 3,713 11.3 73.1°
Sets 12:04:16 0° 347° (NNW) 4,662 11.7 73.5°
